Wind_Speed
9 9 8 8 9 10 9 9 9 9 9 8 8 8 8 6 6 5 5 4 4 4 4 4 3 4 4 4 3 3 3 3 3 3 2 1 1 1 1 1 2 3 3
9 9 9 9 9 10 9 8 8 9 9 8 7 8 7 7 6 5 6 5 5 4 3 3 3 3 3 3 2 2 3 3 3 2 1 1 1 1 1 1 1 2 2
9 9 9 9 9 9 8 7 8 8 9 8 7 7 6 6 5 5 6 5 4 4 3 2 2 2 2 2 2 2 2 2 2 2 1 1 1 1 1 1 1 2 2
9 8 8 9 9 9 8 7 8 8 8 7 6 5 5 5 5 5 5 4 3 3 3 2 2 2 2 2 2 2 2 2 1 1 1 1 1 1 1 1 1 2 2
9 9 9 9 9 8 9 9 9 8 7 7 6 5 5 4 4 5 4 3 3 3 3 3 3 2 2 2 2 2 2 1 1 1 1 1 1 1 1 1 2 2 2
9 9 10 10 9 8 9 10 9 8 7 6 6 5 5 4 4 4 4 3 3 2 2 2 3 3 3 2 2 2 2 2 1 1 1 1 1 1 1 1 1 1 1
10 9 9 9 9 9 9 9 8 8 7 6 5 5 4 4 4 3 3 3 2 2 2 2 3 3 3 3 2 2 3 3 2 2 2 2 1 1 1 1 1 1 1
9 9 9 9 9 9 9 8 8 7 7 6 5 5 4 4 4 3 3 2 3 3 3 3 3 2 2 2 2 2 3 3 2 2 1 1 1 2 2 2 2 1 1
9 8 9 9 8 8 8 8 8 8 7 6 6 5 5 4 4 4 3 3 2 3 3 3 3 3 3 2 2 2 2 2 2 2 2 1 1 2 2 2 1 1 1
8 8 8 8 8 8 8 8 8 7 6 5 5 5 5 5 4 3 3 2 2 2 2 2 2 2 2 2 2 2 2 1 1 1 1 1 1 1 2 2 2 1 1
8 7 7 7 7 7 8 7 7 6 6 5 4 4 4 4 4 3 2 2 2 1 1 1 1 1 1 2 2 1 1 1 0 0 0 1 1 1 1 1 1 0 0
7 7 7 7 7 7 7 7 6 6 5 5 5 4 4 4 4 3 2 2 2 1 1 1 0 1 0 1 1 1 1 1 1 1 1 1 0 1 1 1 1 1 1
7 8 8 7 7 7 6 6 6 5 5 5 4 4 3 3 3 2 2 2 2 1 1 0 1 0 1 1 1 2 2 2 2 2 2 2 2 2 3 3 3 2 2
7 7 7 7 6 6 6 5 5 5 4 4 4 3 2 2 2 2 1 2 2 2 1 0 1 1 2 2 2 2 3 3 3 3 3 3 3 3 4 4 4 4 4
6 6 7 7 6 6 5 5 4 4 3 3 2 2 2 2 2 2 2 1 2 2 2 1 2 2 2 3 3 3 4 4 4 4 5 4 4 4 4 5 5 5 5
6 6 6 6 6 5 5 5 5 4 3 3 3 3 2 2 2 2 1 1 2 2 2 1 2 3 3 3 4 4 5 5 5 5 6 6 5 5 5 5 6 6 6
5 5 5 5 5 5 5 4 4 4 4 4 3 2 2 2 2 2 1 1 2 2 2 2 3 3 4 4 4 5 6 6 6 7 7 7 6 6 6 7 7 7 7
4 3 4 3 3 4 4 4 4 4 4 3 2 2 2 2 1 2 2 2 2 3 3 3 4 4 4 4 5 5 6 6 7 7 7 7 7 7 7 8 8 8 9
5 4 3 3 2 3 3 3 3 3 2 2 2 2 2 2 2 2 2 3 3 4 4 4 4 4 5 5 6 5 6 6 6 7 7 7 8 8 8 8 8 9 9
6 5 3 2 1 1 2 1 2 2 1 1 2 2 2 2 3 3 3 4 4 4 5 5 5 5 6 6 6 6 6 6 6 6 7 7 8 8 9 9 9 9 10
4 5 4 4 3 2 2 2 2 2 2 2 2 3 3 3 4 4 4 5 5 6 6 7 7 7 7 7 7 7 7 7 7 7 7 7 8 8 9 10 11 10 11
5 5 5 4 2 2 1 2 2 2 3 3 3 4 4 5 5 5 6 6 6 7 7 7 7 8 8 8 8 8 8 8 8 8 9 9 8 8 9 10 11 11 10
5 5 5 5 3 1 1 2 3 3 4 4 5 5 5 6 6 6 7 7 7 7 7 8 8 8 8 9 9 9 9 10 10 10 10 10 10 10 11 12 12 12 12
5 5 5 5 4 3 3 3 4 5 5 6 7 7 7 7 7 8 8 8 8 8 8 9 9 9 10 9 9 10 10 11 11 11 12 12 13 13 13 13 13 13 14
6 5 5 5 5 6 6 5 6 7 7 8 8 8 8 8 8 9 9 9 9 9 9 9 10 10 10 10 10 10 11 11 11 12 12 13 13 14 14 14 15 15 15
7 6 6 6 6 7 7 8 8 8 9 9 10 9 9 9 9 9 9 10 10 10 10 10 10 10 11 11 10 11 11 12 13 13 13 14 14 15 15 15 15 16 16
Wind_Direction
77 82 87 95 101 97 95 97 98 104 108 109 108 111 112 107 108 109 115 108 106 108 105 105 107 105 106 103 100 100 98 89 90 92 99 116 115 125 135 139 149 160 161
80 84 86 95 100 100 98 100 101 100 106 109 108 107 105 102 103 109 113 113 108 110 105 101 103 96 103 104 101 97 98 93 91 88 85 103 132 147 148 134 143 164 166
83 87 90 96 97 99 94 93 102 100 98 101 106 107 103 102 103 114 121 122 119 105 98 92 87 89 96 102 103 99 104 95 91 81 68 83 93 110 135 122 146 176 182
85 88 92 96 96 96 91 87 102 104 103 99 101 107 103 104 104 106 117 115 107 95 80 74 78 101 107 106 98 89 92 83 78 75 84 95 82 91 123 143 148 172 182
82 86 88 94 93 92 87 83 97 101 100 100 99 103 100 96 97 102 104 106 99 92 82 79 71 92 121 137 131 115 105 101 86 90 95 92 91 104 125 143 160 165 169
83 86 86 90 90 89 88 84 91 96 98 98 98 98 91 84 89 95 94 99 95 91 85 86 78 93 115 133 130 118 97 97 94 95 93 89 86 84 115 128 123 142 172
84 87 90 89 87 85 87 88 91 93 94 96 96 89 86 88 87 87 93 98 92 85 80 90 97 108 109 104 106 106 90 78 81 76 74 71 76 88 81 95 105 114 140
84 89 93 91 89 87 89 89 92 96 95 92 87 85 84 82 84 81 86 84 76 77 80 87 101 107 101 96 92 97 82 73 73 59 65 64 89 91 85 92 94 101 106
81 86 91 92 90 89 91 92 91 92 93 91 86 80 77 73 75 78 73 71 73 79 84 90 87 92 90 87 92 93 82 76 53 56 54 86 119 106 87 87 99 92 77
80 84 88 90 90 91 93 91 92 95 97 94 91 81 79 71 69 68 67 68 67 74 82 87 86 101 109 106 107 110 96 85 59 61 55 63 93 83 81 83 81 83 55
81 83 84 90 91 95 95 91 89 94 97 94 88 80 73 70 71 74 67 62 61 58 60 78 81 99 137 138 128 122 112 74 347 343 33 64 77 75 87 78 60 105 29
83 86 90 87 92 100 99 93 87 87 90 86 81 75 68 65 62 68 68 51 49 56 58 88 109 79 120 175 169 170 232 302 321 262 239 257 264 263 265 280 286 270 278
87 88 90 90 95 99 100 94 92 93 94 84 79 73 67 66 64 63 68 54 43 33 348 210 218 280 337 285 250 255 263 271 284 280 267 262 267 274 274 277 287 289 284
85 88 89 91 93 99 100 98 95 92 91 86 76 70 56 58 59 50 48 31 27 18 12 283 310 304 306 281 266 260 255 259 264 270 274 273 274 273 274 272 284 287 278
79 83 88 88 89 94 96 96 97 95 89 85 82 82 73 65 50 30 29 21 14 17 349 305 295 295 292 285 268 262 262 256 263 275 281 277 278 279 274 271 280 281 280
79 79 82 84 83 90 95 94 97 92 87 95 91 77 77 64 37 20 7 9 18 6 339 310 286 284 282 281 279 275 270 266 273 276 281 279 270 273 272 274 281 278 276
77 82 81 84 84 89 93 96 97 93 87 90 85 66 52 44 27 357 338 341 343 336 323 310 296 289 286 283 287 286 277 275 276 279 279 279 275 274 276 279 281 279 276
66 75 68 78 92 98 94 91 91 88 88 77 65 47 29 16 2 338 337 332 327 325 323 318 307 297 290 292 293 293 289 281 278 281 280 274 275 276 277 282 285 282 280
49 50 62 64 85 111 111 97 81 82 77 58 39 24 6 341 323 322 330 327 319 316 315 317 312 302 294 293 294 294 293 288 284 280 279 275 276 278 277 279 285 287 284
46 36 34 26 49 103 103 69 63 66 65 38 18 6 358 335 319 311 322 321 314 312 308 302 299 297 295 295 294 293 290 293 289 282 279 280 280 278 277 280 282 285 285
37 34 36 39 51 54 53 51 42 28 20 12 359 342 332 326 315 312 309 309 307 304 301 296 294 292 292 293 292 291 287 283 283 281 278 278 282 281 282 282 282 282 282
26 24 25 18 15 32 18 16 17 5 360 353 341 332 329 324 314 310 309 304 302 304 297 293 294 292 291 292 291 290 286 281 281 280 275 274 278 281 282 285 282 282 281
12 7 6 6 355 339 332 323 324 328 326 325 314 313 313 315 311 306 304 303 301 301 297 293 294 293 292 292 291 288 284 283 282 282 278 275 277 278 281 284 284 281 281
353 346 348 357 350 336 315 304 299 303 301 305 303 301 302 304 304 301 299 297 299 298 295 293 292 292 292 292 292 289 284 284 283 282 281 276 276 276 278 284 285 283 284
325 326 330 335 327 326 324 307 311 303 299 298 300 300 300 300 299 297 295 294 297 296 296 295 293 293 291 289 287 286 283 285 285 283 281 281 281 279 280 283 285 286 283
314 312 304 313 309 307 309 305 304 303 295 295 295 295 295 296 296 294 293 293 294 293 294 293 291 293 291 286 284 283 281 284 286 283 281 283 283 281 282 283 285 287 285
Height
5875 5875 5874 5874 5874 5874 5875 5875 5876 5877 5878 5879 5880 5881 5882 5883 5884 5885 5886 5886 5887 5888 5888 5889 5889 5889 5890 5890 5890 5890 5891 5891 5891 5891 5891 5891 5891 5891 5891 5891 5892 5892 5892
5876 5876 5875 5875 5876 5876 5876 5876 5877 5877 5879 5880 5881 5882 5883 5884 5885 5886 5887 5888 5888 5888 5889 5889 5889 5890 5890 5890 5891 5891 5891 5891 5891 5891 5891 5891 5891 5891 5891 5892 5892 5892 5892
5877 5877 5877 5877 5877 5877 5877 5876 5877 5878 5880 5881 5882 5883 5884 5885 5886 5886 5887 5888 5889 5889 5889 5890 5890 5890 5891 5891 5891 5891 5892 5892 5892 5892 5892 5892 5892 5892 5892 5892 5892 5892 5893
5879 5878 5878 5878 5878 5878 5877 5877 5877 5879 5880 5882 5883 5884 5885 5885 5886 5887 5888 5889 5889 5889 5890 5890 5890 5890 5891 5891 5892 5892 5892 5892 5892 5892 5892 5892 5892 5892 5892 5892 5892 5893 5893
5880 5880 5879 5879 5879 5879 5879 5878 5878 5880 5881 5883 5884 5885 5885 5886 5887 5888 5888 5889 5889 5890 5890 5890 5891 5891 5891 5892 5892 5892 5892 5892 5893 5892 5892 5892 5892 5893 5892 5892 5893 5893 5893
5881 5881 5881 5881 5881 5881 5880 5880 5881 5882 5883 5884 5885 5886 5886 5887 5888 5888 5889 5889 5890 5890 5890 5891 5891 5891 5892 5892 5892 5892 5892 5892 5893 5893 5893 5893 5893 5893 5893 5893 5893 5893 5893
5883 5883 5882 5882 5883 5882 5882 5883 5883 5884 5885 5885 5886 5887 5887 5888 5888 5889 5889 5890 5890 5890 5891 5891 5891 5892 5892 5892 5892 5892 5892 5892 5893 5893 5893 5893 5893 5893 5893 5893 5893 5893 5893
5884 5884 5884 5884 5884 5884 5884 5885 5885 5885 5886 5887 5887 5888 5888 5888 5889 5889 5890 5890 5890 5891 5891 5891 5892 5892 5892 5892 5892 5892 5893 5893 5893 5893 5893 5893 5893 5893 5893 5893 5893 5893 5893
5886 5886 5886 5885 5886 5886 5886 5886 5886 5887 5887 5888 5888 5888 5889 5889 5889 5890 5890 5890 5891 5891 5891 5891 5892 5892 5892 5892 5893 5893 5893 5893 5893 5893 5893 5893 5893 5893 5893 5893 5893 5893 5893
5887 5887 5887 5887 5887 5887 5887 5888 5888 5888 5888 5889 5889 5889 5889 5890 5890 5891 5891 5891 5891 5891 5891 5892 5892 5892 5892 5892 5893 5893 5893 5894 5894 5893 5893 5893 5894 5894 5893 5893 5893 5893 5893
5889 5889 5888 5888 5888 5888 5888 5888 5889 5889 5889 5889 5890 5890 5890 5891 5891 5891 5891 5891 5891 5891 5892 5892 5892 5892 5892 5893 5893 5893 5894 5894 5894 5894 5894 5894 5894 5894 5894 5893 5893 5893 5893
5890 5890 5889 5889 5889 5889 5889 5889 5890 5890 5890 5890 5891 5891 5891 5891 5891 5891 5891 5891 5891 5891 5891 5892 5892 5892 5892 5893 5893 5893 5894 5894 5894 5894 5894 5893 5894 5894 5894 5893 5893 5893 5893
5891 5891 5890 5890 5890 5890 5890 5890 5891 5891 5891 5891 5891 5891 5892 5892 5892 5892 5891 5891 5891 5891 5891 5891 5892 5892 5892 5892 5893 5893 5893 5893 5893 5893 5893 5893 5893 5893 5893 5893 5893 5892 5892
5892 5891 5891 5891 5891 5891 5891 5891 5891 5891 5891 5892 5892 5892 5892 5892 5892 5892 5892 5891 5891 5891 5891 5891 5891 5891 5892 5892 5892 5892 5892 5893 5893 5893 5893 5893 5893 5893 5892 5892 5892 5892 5892
5892 5892 5892 5892 5892 5892 5892 5892 5892 5892 5892 5892 5892 5892 5892 5892 5892 5891 5891 5891 5891 5891 5891 5890 5891 5891 5891 5891 5891 5891 5891 5892 5892 5892 5892 5892 5892 5892 5892 5892 5891 5891 5891
5893 5893 5893 5892 5892 5892 5892 5892 5892 5892 5892 5892 5892 5892 5892 5892 5891 5891 5891 5891 5891 5891 5891 5890 5890 5890 5890 5890 5890 5890 5890 5890 5891 5891 5891 5891 5891 5891 5891 5890 5890 5890 5890
5894 5894 5893 5893 5893 5893 5892 5892 5892 5892 5892 5892 5892 5892 5892 5892 5891 5891 5891 5891 5890 5890 5890 5890 5890 5889 5889 5889 5889 5889 5889 5889 5889 5889 5889 5889 5889 5889 5889 5889 5889 5889 5888
5895 5894 5894 5894 5893 5893 5893 5893 5893 5892 5893 5892 5892 5892 5892 5891 5891 5891 5890 5890 5890 5889 5889 5889 5889 5889 5888 5888 5888 5888 5888 5888 5888 5887 5887 5888 5888 5888 5888 5888 5887 5887 5887
5895 5895 5894 5894 5893 5893 5893 5893 5893 5893 5893 5892 5892 5892 5891 5891 5890 5890 5890 5889 5889 5889 5888 5888 5888 5887 5887 5887 5886 5886 5886 5886 5886 5886 5886 5886 5886 5886 5886 5885 5885 5885 5885
5895 5895 5894 5894 5893 5893 5893 5893 5893 5893 5892 5892 5892 5891 5891 5890 5890 5890 5889 5889 5888 5888 5887 5887 5886 5886 5885 5885 5885 5885 5884 5884 5884 5883 5883 5884 5884 5884 5884 5883 5883 5883 5883
5896 5895 5894 5894 5893 5893 5893 5893 5893 5893 5892 5892 5891 5891 5890 5890 5889 5889 5888 5888 5887 5887 5886 5886 5885 5884 5884 5883 5883 5883 5883 5882 5882 5881 5881 5881 5881 5881 5881 5881 5881 5880 5880
5896 5895 5894 5894 5893 5893 5893 5893 5892 5892 5892 5891 5891 5890 5889 5889 5888 5888 5887 5886 5886 5885 5885 5884 5883 5883 5882 5881 5881 5880 5881 5881 5880 5879 5879 5879 5879 5879 5879 5878 5878 5878 5877
5896 5895 5894 5893 5892 5892 5892 5892 5892 5891 5891 5890 5890 5889 5888 5888 5887 5886 5885 5885 5884 5883 5882 5882 5881 5881 5880 5879 5878 5878 5878 5878 5877 5877 5877 5876 5876 5876 5876 5875 5875 5874 5874
5895 5894 5893 5893 5892 5891 5891 5890 5890 5890 5890 5889 5888 5887 5886 5886 5885 5884 5883 5883 5882 5881 5880 5880 5879 5878 5878 5877 5876 5876 5875 5875 5874 5874 5874 5874 5873 5873 5873 5872 5872 5871 5870
5894 5893 5892 5892 5891 5890 5889 5889 5888 5888 5888 5887 5886 5885 5884 5884 5883 5882 5881 5880 5879 5879 5878 5877 5877 5876 5875 5874 5874 5873 5873 5872 5871 5871 5871 5870 5870 5869 5869 5869 5868 5868 5867
5893 5892 5890 5890 5889 5888 5888 5887 5887 5886 5885 5885 5884 5883 5882 5881 5880 5879 5879 5878 5877 5876 5875 5874 5874 5873 5872 5871 5871 5870 5869 5869 5868 5868 5867 5867 5866 5866 5865 5865 5865 5864 5863